STARLINK-1488 (45775 NORAD) Tracking and Keplerian Element Data

This shows tracking and keplerian element data for the satellite.

Feedback or suggestion? Click here.




ElementValue
Catalog45775
NameSTARLINK-1488
Epoch Orbit182
Epoch Day191.91670139
Epoch Year2020
RAAN166.1004
Inclination53.0013
Eccentricity0.0001213
Argument of Perigee102.6974
Mean Anonmoly36.4964
Mean Motion15.62744296
Decay Rate0.00029207
L11 45775U 20038AX 20191.91670139 .00029207 00000-0 32376-3 0 9994
L22 45775 53.0013 166.1004 0001213 102.6974 36.4964 15.62744296 1825

Live tracking and technical data element details for STARLINK-1488 (NORAD 45775). STARLINK-1488 can be tracked NOW for your location showing map with azimuth and elevation plus other details from your city location.

Track the satellite on the map from your city or location and see movement details for azimuth, elevation, latitude, longitude, range, height, and movement on the map or in text.







IsCatalogInMostPopularTable: catalog: 45775, numindb: 6
Update: records affected: 1



GetName: 45775 STARLINK-1488

Hit Count: updated at: Fri, 10 Jul 2020 15:13:58 GMT